Time,TemperatureF,DewpointF,PressureIn,WindDirection,WindDirectionDegrees,WindSpeedMPH,WindSpeedGustMPH,Humidity,HourlyPrecipIn,Conditions,Clouds,dailyrainin,SoftwareType,DateUTC
2013-08-14 00:00:00,65.1,61.5,30.00,SE,128,0.0,0.0,88,0.00,CLR,,0.00,WeatherDisplay:10.37,2013-08-13 14:00:00,
2013-08-14 00:10:00,65.2,61.6,30.00,SE,141,0.0,3.0,88,0.00,CLR,,0.00,WeatherDisplay:10.37,2013-08-13 14:10:00,
2013-08-14 00:15:00,65.3,61.7,30.00,SSE,157,0.0,3.0,88,0.00,CLR,,0.00,WeatherDisplay:10.37,2013-08-13 14:15:00,
2013-08-14 00:20:00,65.4,61.8,30.00,South,172,0.0,1.0,88,0.00,CLR,,0.00,WeatherDisplay:10.37,2013-08-13 14:20:00,
2013-08-14 00:25:00,65.4,61.4,30.00,South,177,0.0,2.0,87,0.00,CLR,,0.00,WeatherDisplay:10.37,2013-08-13 14:25:00,
2013-08-14 00:35:00,65.4,61.4,30.00,South,180,1.0,2.0,87,0.00,CLR,,0.00,WeatherDisplay:10.37,2013-08-13 14:35:00,
2013-08-14 00:40:00,65.3,61.4,29.99,South,180,0.0,1.0,87,0.00,CLR,,0.00,WeatherDisplay:10.37,2013-08-13 14:40:00,
2013-08-14 00:45:00,65.3,61.3,30.00,South,180,0.0,1.0,87,0.00,CLR,,0.00,WeatherDisplay:10.37,2013-08-13 14:45:00,
2013-08-14 00:50:00,65.3,61.3,30.00,South,177,0.0,3.0,87,0.00,CLR,,0.00,WeatherDisplay:10.37,2013-08-13 14:50:00,
2013-08-14 00:55:00,65.3,61.3,29.99,South,175,0.0,3.0,87,0.00,CLR,,0.00,WeatherDisplay:10.37,2013-08-13 14:55:00,
2013-08-14 01:00:00,65.3,61.3,29.99,South,177,0.0,2.0,87,0.00,CLR,,0.00,WeatherDisplay:10.37,2013-08-13 15:00:00,
2013-08-14 01:10:00,65.3,61.3,29.99,South,182,0.0,3.0,87,0.00,CLR,,0.00,WeatherDisplay:10.37,2013-08-13 15:10:00,
2013-08-14 01:20:00,65.3,61.0,29.99,South,191,1.0,2.0,86,0.00,CLR,,0.00,WeatherDisplay:10.37,2013-08-13 15:20:00,
2013-08-14 01:25:00,65.2,61.0,29.99,South,184,0.0,2.0,86,0.00,FEW,,0.00,WeatherDisplay:10.37,2013-08-13 15:25:00,
2013-08-14 01:30:00,65.2,60.9,29.99,South,180,0.0,3.0,86,0.00,FEW,,0.00,WeatherDisplay:10.37,2013-08-13 15:30:00,
2013-08-14 01:35:00,65.2,60.9,29.99,South,187,0.0,5.0,86,0.00,FEW,,0.00,WeatherDisplay:10.37,2013-08-13 15:35:00,
2013-08-14 01:40:00,65.1,60.5,29.98,SSW,200,0.0,2.0,85,0.00,FEW,,0.00,WeatherDisplay:10.37,2013-08-13 15:40:00,
2013-08-14 01:50:00,64.8,60.6,29.98,SSW,212,0.0,3.0,86,0.00,FEW,,0.00,WeatherDisplay:10.37,2013-08-13 15:50:00,
2013-08-14 01:55:00,64.7,60.4,29.98,SSW,212,0.0,4.0,86,0.00,FEW,,0.00,WeatherDisplay:10.37,2013-08-13 15:55:00,
2013-08-14 02:00:00,64.5,60.2,29.98,South,186,0.0,2.0,86,0.00,FEW,,0.00,WeatherDisplay:10.37,2013-08-13 16:00:00,
2013-08-14 02:05:00,64.3,60.0,29.98,South,178,0.0,2.0,86,0.00,FEW,,0.00,WeatherDisplay:10.37,2013-08-13 16:05:00,
2013-08-14 02:15:00,64.0,59.8,29.98,South,189,0.0,1.0,86,0.00,FEW,,0.00,WeatherDisplay:10.37,2013-08-13 16:15:00,
2013-08-14 02:20:00,64.0,60.0,29.98,South,189,0.0,2.0,87,0.00,FEW,,0.00,WeatherDisplay:10.37,2013-08-13 16:20:00,
2013-08-14 02:30:00,63.9,60.0,29.97,SW,225,0.0,4.0,87,0.00,FEW,,0.00,WeatherDisplay:10.37,2013-08-13 16:30:00,
2013-08-14 02:40:00,63.8,59.9,29.97,SW,229,0.0,2.0,87,0.00,FEW,,0.00,WeatherDisplay:10.37,2013-08-13 16:40:00,
2013-08-14 02:45:00,63.7,59.8,29.97,SW,229,0.0,1.0,87,0.00,FEW,,0.00,WeatherDisplay:10.37,2013-08-13 16:45:00,
2013-08-14 02:55:00,63.6,60.0,29.97,SW,215,0.0,2.0,88,0.00,FEW,,0.00,WeatherDisplay:10.37,2013-08-13 16:55:00,
2013-08-14 03:00:00,63.6,59.9,29.97,SW,215,1.0,3.0,88,0.00,FEW,,0.00,WeatherDisplay:10.37,2013-08-13 17:00:00,
2013-08-14 03:15:00,63.3,59.7,29.96,South,190,0.0,3.0,88,0.00,FEW,,0.00,WeatherDisplay:10.37,2013-08-13 17:15:00,
2013-08-14 03:20:00,63.2,59.6,29.96,SSW,209,0.0,4.0,88,0.00,FEW,,0.00,WeatherDisplay:10.37,2013-08-13 17:20:00,
2013-08-14 03:25:00,63.1,59.5,29.96,SW,219,0.0,2.0,88,0.00,CLR,,0.00,WeatherDisplay:10.37,2013-08-13 17:25:00,
2013-08-14 03:30:00,63.0,59.4,29.96,SW,218,1.0,4.0,88,0.00,CLR,,0.00,WeatherDisplay:10.37,2013-08-13 17:30:00,
2013-08-14 03:35:00,63.0,59.4,29.96,SW,234,0.0,5.0,88,0.00,CLR,,0.00,WeatherDisplay:10.37,2013-08-13 17:35:00,
2013-08-14 03:40:00,62.9,59.3,29.96,WSW,245,1.0,5.0,88,0.00,CLR,,0.00,WeatherDisplay:10.37,2013-08-13 17:40:00,
2013-08-14 03:45:00,62.9,59.3,29.96,WSW,240,0.0,5.0,88,0.00,CLR,,0.00,WeatherDisplay:10.37,2013-08-13 17:45:00,
2013-08-14 03:50:00,62.9,59.3,29.96,SW,230,1.0,9.0,88,0.00,CLR,,0.00,WeatherDisplay:10.37,2013-08-13 17:50:00,
2013-08-14 03:55:00,62.9,59.3,29.96,SW,225,1.0,4.0,88,0.00,CLR,,0.00,WeatherDisplay:10.37,2013-08-13 17:55:00,
2013-08-14 04:00:00,62.9,59.3,29.96,SW,225,0.0,3.0,88,0.00,CLR,,0.00,WeatherDisplay:10.37,2013-08-13 18:00:00,
2013-08-14 04:10:00,63.0,59.4,29.96,SW,219,1.0,4.0,88,0.00,CLR,,0.00,WeatherDisplay:10.37,2013-08-13 18:10:00,
2013-08-14 04:15:00,63.0,59.4,29.96,SW,221,0.0,4.0,88,0.00,CLR,,0.00,WeatherDisplay:10.37,2013-08-13 18:15:00,
2013-08-14 04:20:00,63.0,59.4,29.96,SW,224,0.0,4.0,88,0.00,CLR,,0.00,WeatherDisplay:10.37,2013-08-13 18:20:00,
2013-08-14 04:25:00,62.9,59.3,29.96,SW,222,1.0,5.0,88,0.00,CLR,,0.00,WeatherDisplay:10.37,2013-08-13 18:25:00,
2013-08-14 04:30:00,62.9,59.0,29.96,SW,224,1.0,4.0,87,0.00,CLR,,0.00,WeatherDisplay:10.37,2013-08-13 18:30:00,
2013-08-14 04:35:00,62.7,58.8,29.96,SW,222,0.0,3.0,87,0.00,CLR,,0.00,WeatherDisplay:10.37,2013-08-13 18:35:00,
2013-08-14 04:40:00,62.7,58.8,29.96,SW,215,1.0,5.0,87,0.00,CLR,,0.00,WeatherDisplay:10.37,2013-08-13 18:40:00,
2013-08-14 04:45:00,62.7,59.1,29.96,SW,218,0.0,3.0,88,0.00,CLR,,0.00,WeatherDisplay:10.37,2013-08-13 18:45:00,
2013-08-14 04:50:00,62.7,58.8,29.96,SW,227,0.0,5.0,87,0.00,CLR,,0.00,WeatherDisplay:10.37,2013-08-13 18:50:00,
2013-08-14 04:55:00,62.6,58.7,29.96,SW,228,1.0,5.0,87,0.00,CLR,,0.00,WeatherDisplay:10.37,2013-08-13 18:55:00,
2013-08-14 05:00:00,62.5,58.6,29.96,SSW,202,1.0,3.0,87,0.00,CLR,,0.00,WeatherDisplay:10.37,2013-08-13 19:00:00,
2013-08-14 05:10:00,62.2,58.6,29.96,SW,222,1.0,5.0,88,0.00,CLR,,0.00,WeatherDisplay:10.37,2013-08-13 19:10:00,
2013-08-14 05:15:00,62.0,58.4,29.97,SW,224,0.0,5.0,88,0.00,CLR,,0.00,WeatherDisplay:10.37,2013-08-13 19:15:00,
2013-08-14 05:20:00,61.9,58.3,29.97,SW,226,1.0,3.0,88,0.00,CLR,,0.00,WeatherDisplay:10.37,2013-08-13 19:20:00,
2013-08-14 05:25:00,61.8,58.3,29.97,SW,225,1.0,4.0,88,0.00,CLR,,0.00,WeatherDisplay:10.37,2013-08-13 19:25:00,
2013-08-14 05:30:00,61.9,58.3,29.97,SW,223,0.0,2.0,88,0.00,CLR,,0.00,WeatherDisplay:10.37,2013-08-13 19:30:00,
2013-08-14 05:35:00,61.9,58.3,29.97,SW,224,1.0,4.0,88,0.00,CLR,,0.00,WeatherDisplay:10.37,2013-08-13 19:35:00,
2013-08-14 05:40:00,62.0,58.4,29.97,SW,228,1.0,4.0,88,0.00,CLR,,0.00,WeatherDisplay:10.37,2013-08-13 19:40:00,
2013-08-14 05:50:00,62.1,58.5,29.97,SW,223,0.0,6.0,88,0.00,CLR,,0.00,WeatherDisplay:10.37,2013-08-13 19:50:00,
2013-08-14 05:55:00,62.2,58.6,29.98,SW,233,0.0,3.0,88,0.00,CLR,,0.00,WeatherDisplay:10.37,2013-08-13 19:55:00,
2013-08-14 06:00:00,62.2,58.6,29.98,SW,228,0.0,4.0,88,0.00,CLR,,0.00,WeatherDisplay:10.37,2013-08-13 20:00:00,
2013-08-14 06:10:00,62.0,58.4,29.98,SW,234,0.0,3.0,88,0.00,CLR,,0.00,WeatherDisplay:10.37,2013-08-13 20:10:00,
2013-08-14 06:20:00,61.6,58.0,29.98,SW,235,0.0,2.0,88,0.00,CLR,,0.00,WeatherDisplay:10.37,2013-08-13 20:20:00,
2013-08-14 06:25:00,61.5,57.9,29.98,SW,235,0.0,4.0,88,0.00,CLR,,0.00,WeatherDisplay:10.37,2013-08-13 20:25:00,
2013-08-14 06:30:00,61.3,57.7,29.98,SW,233,0.0,4.0,88,0.00,CLR,,0.00,WeatherDisplay:10.37,2013-08-13 20:30:00,
2013-08-14 06:40:00,61.4,57.8,29.99,SW,235,0.0,3.0,88,0.00,FEW,,0.00,WeatherDisplay:10.37,2013-08-13 20:40:00,
2013-08-14 06:45:00,61.5,57.9,29.99,SW,235,2.0,4.0,88,0.00,FEW,,0.00,WeatherDisplay:10.37,2013-08-13 20:45:00,
2013-08-14 06:50:00,61.6,58.0,29.99,WSW,238,1.0,4.0,88,0.00,FEW,,0.00,WeatherDisplay:10.37,2013-08-13 20:50:00,
2013-08-14 06:55:00,61.8,58.2,29.99,WSW,238,1.0,5.0,88,0.00,FEW,,0.00,WeatherDisplay:10.37,2013-08-13 20:55:00,
2013-08-14 07:00:00,61.9,58.3,29.99,WSW,241,0.0,3.0,88,0.00,FEW,,0.00,WeatherDisplay:10.37,2013-08-13 21:00:00,
2013-08-14 07:10:00,62.1,58.2,30.00,SW,235,1.0,2.0,87,0.00,FEW,,0.00,WeatherDisplay:10.37,2013-08-13 21:10:00,
2013-08-14 07:15:00,62.3,58.4,30.00,SSW,206,0.0,4.0,87,0.00,FEW,,0.00,WeatherDisplay:10.37,2013-08-13 21:15:00,
2013-08-14 07:20:00,62.4,58.5,30.00,SW,226,0.0,6.0,87,0.00,FEW,,0.00,WeatherDisplay:10.37,2013-08-13 21:20:00,
2013-08-14 07:25:00,62.5,58.6,30.00,WSW,242,1.0,4.0,87,0.00,FEW,,0.00,WeatherDisplay:10.37,2013-08-13 21:25:00,
2013-08-14 07:30:00,62.6,59.0,30.00,SW,226,1.0,4.0,88,0.00,FEW,,0.00,WeatherDisplay:10.37,2013-08-13 21:30:00,
2013-08-14 07:40:00,63.0,58.7,30.01,SW,230,2.0,9.0,86,0.00,FEW,,0.00,WeatherDisplay:10.37,2013-08-13 21:40:00,
2013-08-14 07:45:00,63.2,58.9,30.01,SW,234,2.0,8.0,86,0.00,FEW,,0.00,WeatherDisplay:10.37,2013-08-13 21:45:00,
2013-08-14 07:50:00,63.4,59.1,30.01,SW,229,1.0,4.0,86,0.00,FEW,,0.00,WeatherDisplay:10.37,2013-08-13 21:50:00,
2013-08-14 07:55:00,63.7,59.1,30.01,SW,221,2.0,4.0,85,0.00,FEW,,0.00,WeatherDisplay:10.37,2013-08-13 21:55:00,
2013-08-14 08:00:00,64.1,59.5,30.02,SW,216,2.0,5.0,85,0.00,FEW,,0.00,WeatherDisplay:10.37,2013-08-13 22:00:00,
2013-08-14 08:10:00,64.9,59.6,30.02,SW,224,0.0,5.0,83,0.00,FEW,,0.00,WeatherDisplay:10.37,2013-08-13 22:10:00,
2013-08-14 08:15:00,65.3,60.0,30.02,SW,231,0.0,3.0,83,0.00,FEW,,0.00,WeatherDisplay:10.37,2013-08-13 22:15:00,
2013-08-14 08:20:00,65.8,60.1,30.02,SSW,211,1.0,7.0,82,0.00,FEW,,0.00,WeatherDisplay:10.37,2013-08-13 22:20:00,
2013-08-14 08:25:00,66.1,60.5,30.02,SW,215,1.0,6.0,82,0.00,FEW,,0.00,WeatherDisplay:10.37,2013-08-13 22:25:00,
2013-08-14 08:30:00,66.6,60.9,30.02,SW,223,1.0,5.0,82,0.00,FEW,,0.00,WeatherDisplay:10.37,2013-08-13 22:30:00,
2013-08-14 08:35:00,67.1,61.1,30.03,SW,225,1.0,4.0,81,0.00,FEW,,0.00,WeatherDisplay:10.37,2013-08-13 22:35:00,
2013-08-14 08:40:00,67.6,61.2,30.03,SW,234,2.0,5.0,80,0.00,FEW,,0.00,WeatherDisplay:10.37,2013-08-13 22:40:00,
2013-08-14 08:50:00,68.5,62.1,30.03,SSW,213,0.0,4.0,80,0.00,FEW,,0.00,WeatherDisplay:10.37,2013-08-13 22:50:00,
2013-08-14 08:55:00,69.3,62.1,30.03,SSW,203,0.0,3.0,78,0.00,FEW,,0.00,WeatherDisplay:10.37,2013-08-13 22:55:00,
2013-08-14 09:00:00,70.0,62.4,30.03,SSW,200,0.0,3.0,77,0.00,FEW,,0.00,WeatherDisplay:10.37,2013-08-13 23:00:00,
2013-08-14 09:05:00,70.8,62.9,30.04,SSW,205,0.0,4.0,76,0.00,FEW,,0.00,WeatherDisplay:10.37,2013-08-13 23:05:00,
2013-08-14 09:10:00,71.5,63.2,30.04,SSW,213,1.0,3.0,75,0.00,FEW,,0.00,WeatherDisplay:10.37,2013-08-13 23:10:00,
2013-08-14 09:15:00,71.9,63.2,30.04,SW,227,1.0,5.0,74,0.00,FEW,,0.00,WeatherDisplay:10.37,2013-08-13 23:15:00,
2013-08-14 09:20:00,72.4,63.7,30.04,SSW,210,1.0,5.0,74,0.00,FEW,,0.00,WeatherDisplay:10.37,2013-08-13 23:20:00,
2013-08-14 09:25:00,73.1,63.9,30.05,South,180,1.0,4.0,73,0.00,FEW,,0.00,WeatherDisplay:10.37,2013-08-13 23:25:00,
2013-08-14 09:30:00,73.6,64.0,30.05,SW,214,1.0,3.0,72,0.00,FEW,,0.00,WeatherDisplay:10.37,2013-08-13 23:30:00,
2013-08-14 09:35:00,74.2,64.6,30.05,South,179,1.0,5.0,72,0.00,FEW,,0.00,WeatherDisplay:10.37,2013-08-13 23:35:00,
2013-08-14 09:40:00,74.7,64.7,30.05,SSW,199,0.0,6.0,71,0.00,FEW,,0.00,WeatherDisplay:10.37,2013-08-13 23:40:00,
2013-08-14 09:45:00,75.3,64.8,30.05,South,190,1.0,4.0,70,0.00,FEW,,0.00,WeatherDisplay:10.37,2013-08-13 23:45:00,
2013-08-14 09:55:00,76.2,65.3,30.05,South,191,2.0,5.0,69,0.00,FEW,,0.00,WeatherDisplay:10.37,2013-08-13 23:55:00,
2013-08-14 10:00:00,76.3,65.0,30.05,SSW,212,1.0,4.0,68,0.00,FEW,,0.00,WeatherDisplay:10.37,2013-08-14 00:00:00,
2013-08-14 10:10:00,76.9,65.6,30.04,SW,220,0.0,2.0,68,0.00,FEW,,0.00,WeatherDisplay:10.37,2013-08-14 00:10:00,
2013-08-14 10:15:00,77.7,65.8,30.03,South,186,2.0,5.0,67,0.00,FEW,,0.00,WeatherDisplay:10.37,2013-08-14 00:15:00,
2013-08-14 10:20:00,78.3,66.0,30.03,ESE,121,0.0,5.0,66,0.00,FEW,,0.00,WeatherDisplay:10.37,2013-08-14 00:20:00,
2013-08-14 10:30:00,79.3,65.6,30.03,ESE,114,2.0,5.0,63,0.00,FEW,,0.00,WeatherDisplay:10.37,2013-08-14 00:30:00,
2013-08-14 10:35:00,79.3,66.1,30.03,ESE,114,1.0,5.0,64,0.00,FEW,,0.00,WeatherDisplay:10.37,2013-08-14 00:35:00,
2013-08-14 10:40:00,79.3,65.6,30.03,ESE,106,1.0,5.0,63,0.00,FEW,,0.00,WeatherDisplay:10.37,2013-08-14 00:40:00,
2013-08-14 10:45:00,79.3,65.6,30.03,ESE,102,3.0,6.0,63,0.00,CLR,,0.00,WeatherDisplay:10.37,2013-08-14 00:45:00,
2013-08-14 10:50:00,78.9,65.7,30.02,East,97,1.0,6.0,64,0.00,CLR,,0.00,WeatherDisplay:10.37,2013-08-14 00:50:00,
2013-08-14 10:55:00,79.2,66.4,30.02,East,98,1.0,4.0,65,0.00,CLR,,0.00,WeatherDisplay:10.37,2013-08-14 00:55:00,
2013-08-14 11:00:00,79.5,65.8,30.02,ESE,114,0.0,5.0,63,0.00,CLR,,0.00,WeatherDisplay:10.37,2013-08-14 01:00:00,
2013-08-14 11:10:00,78.7,66.3,30.02,East,80,5.0,7.0,66,0.00,FEW,,0.00,WeatherDisplay:10.37,2013-08-14 01:10:00,
2013-08-14 11:15:00,78.5,66.6,30.02,East,79,6.0,9.0,67,0.00,FEW,,0.00,WeatherDisplay:10.37,2013-08-14 01:15:00,
2013-08-14 11:20:00,78.8,67.0,30.01,ENE,76,5.0,7.0,67,0.00,FEW,,0.00,WeatherDisplay:10.37,2013-08-14 01:20:00,
2013-08-14 11:25:00,79.6,67.7,30.01,ENE,71,5.0,6.0,67,0.00,FEW,,0.00,WeatherDisplay:10.37,2013-08-14 01:25:00,
2013-08-14 11:30:00,79.7,67.4,30.01,ENE,71,5.0,9.0,66,0.00,FEW,,0.00,WeatherDisplay:10.37,2013-08-14 01:30:00,
2013-08-14 11:35:00,80.2,67.4,30.01,ENE,69,2.0,5.0,65,0.00,FEW,,0.00,WeatherDisplay:10.37,2013-08-14 01:35:00,
2013-08-14 11:40:00,81.1,68.2,30.01,ENE,68,0.0,4.0,65,0.00,FEW,,0.00,WeatherDisplay:10.37,2013-08-14 01:40:00,
2013-08-14 11:45:00,81.6,67.8,30.01,ENE,68,0.0,4.0,63,0.00,FEW,,0.00,WeatherDisplay:10.37,2013-08-14 01:45:00,
2013-08-14 11:50:00,82.0,67.7,30.01,ENE,68,1.0,4.0,62,0.00,FEW,,0.00,WeatherDisplay:10.37,2013-08-14 01:50:00,
2013-08-14 11:55:00,82.0,68.6,30.00,ENE,67,1.0,5.0,64,0.00,FEW,,0.00,WeatherDisplay:10.37,2013-08-14 01:55:00,
2013-08-14 12:00:00,81.5,66.7,30.00,ENE,72,3.0,7.0,61,0.00,FEW,,0.00,WeatherDisplay:10.37,2013-08-14 02:00:00,
2013-08-14 12:10:00,80.8,67.5,30.00,ENE,72,5.0,10.0,64,0.00,FEW,,0.00,WeatherDisplay:10.37,2013-08-14 02:10:00,
2013-08-14 12:15:00,80.7,68.3,30.00,ENE,71,2.0,9.0,66,0.00,FEW,,0.00,WeatherDisplay:10.37,2013-08-14 02:15:00,
2013-08-14 12:20:00,81.3,68.4,29.99,ENE,71,5.0,8.0,65,0.00,FEW,,0.00,WeatherDisplay:10.37,2013-08-14 02:20:00,
2013-08-14 12:25:00,81.1,68.2,29.99,ENE,71,5.0,9.0,65,0.00,FEW,,0.00,WeatherDisplay:10.37,2013-08-14 02:25:00,
2013-08-14 12:30:00,80.9,67.6,29.99,ENE,71,6.0,9.0,64,0.00,FEW,,0.00,WeatherDisplay:10.37,2013-08-14 02:30:00,
2013-08-14 12:40:00,81.8,68.4,29.98,ENE,67,3.0,7.0,64,0.00,FEW,,0.00,WeatherDisplay:10.37,2013-08-14 02:40:00,
2013-08-14 12:45:00,81.9,68.5,29.98,ENE,70,3.0,8.0,64,0.00,FEW,,0.00,WeatherDisplay:10.37,2013-08-14 02:45:00,
2013-08-14 12:50:00,81.7,67.9,29.98,ENE,71,2.0,10.0,63,0.00,FEW,,0.00,WeatherDisplay:10.37,2013-08-14 02:50:00,
2013-08-14 12:55:00,81.9,68.5,29.98,ENE,70,2.0,7.0,64,0.00,FEW,,0.00,WeatherDisplay:10.37,2013-08-14 02:55:00,
2013-08-14 13:00:00,82.2,68.8,29.97,ENE,70,2.0,4.0,64,0.00,FEW,,0.00,WeatherDisplay:10.37,2013-08-14 03:00:00,
2013-08-14 13:10:00,82.1,68.3,29.97,ENE,70,1.0,5.0,63,0.00,FEW,,0.00,WeatherDisplay:10.37,2013-08-14 03:10:00,
2013-08-14 13:15:00,82.0,69.1,29.97,ENE,69,1.0,4.0,65,0.00,FEW,,0.00,WeatherDisplay:10.37,2013-08-14 03:15:00,
2013-08-14 13:25:00,81.9,68.5,29.97,ENE,67,1.0,7.0,64,0.00,FEW,,0.00,WeatherDisplay:10.37,2013-08-14 03:25:00,
2013-08-14 13:30:00,81.8,68.9,29.97,ENE,69,1.0,5.0,65,0.00,FEW,,0.00,WeatherDisplay:10.37,2013-08-14 03:30:00,
2013-08-14 13:35:00,81.7,69.2,29.97,ENE,67,2.0,6.0,66,0.00,FEW,,0.00,WeatherDisplay:10.37,2013-08-14 03:35:00,
2013-08-14 13:40:00,81.6,68.7,29.97,ENE,68,3.0,5.0,65,0.00,FEW,,0.00,WeatherDisplay:10.37,2013-08-14 03:40:00,
2013-08-14 13:45:00,81.4,68.9,29.96,ENE,70,1.0,7.0,66,0.00,FEW,,0.00,WeatherDisplay:10.37,2013-08-14 03:45:00,
2013-08-14 13:50:00,81.3,68.0,29.96,ENE,69,2.0,5.0,64,0.00,FEW,,0.00,WeatherDisplay:10.37,2013-08-14 03:50:00,
2013-08-14 13:55:00,81.1,67.8,29.96,ENE,67,3.0,10.0,64,0.00,FEW,,0.00,WeatherDisplay:10.37,2013-08-14 03:55:00,
2013-08-14 14:00:00,81.2,68.3,29.95,ENE,67,5.0,8.0,65,0.00,FEW,,0.00,WeatherDisplay:10.37,2013-08-14 04:00:00,
2013-08-14 14:05:00,81.1,68.7,29.95,ENE,67,3.0,9.0,66,0.00,FEW,,0.00,WeatherDisplay:10.37,2013-08-14 04:05:00,
2013-08-14 14:10:00,80.8,68.4,29.95,ENE,69,7.0,12.0,66,0.00,FEW,,0.00,WeatherDisplay:10.37,2013-08-14 04:10:00,
2013-08-14 14:15:00,80.3,68.4,29.95,ENE,72,7.0,12.0,67,0.00,FEW,,0.00,WeatherDisplay:10.37,2013-08-14 04:15:00,
2013-08-14 14:20:00,80.1,68.2,29.95,ENE,71,6.0,12.0,67,0.00,FEW,,0.00,WeatherDisplay:10.37,2013-08-14 04:20:00,
2013-08-14 14:25:00,80.2,68.2,29.95,ENE,70,2.0,10.0,67,0.00,FEW,,0.00,WeatherDisplay:10.37,2013-08-14 04:25:00,
2013-08-14 14:30:00,80.4,68.4,29.95,ENE,69,2.0,9.0,67,0.00,FEW,,0.00,WeatherDisplay:10.37,2013-08-14 04:30:00,
2013-08-14 14:40:00,80.3,68.8,29.95,ENE,71,5.0,9.0,68,0.00,FEW,,0.00,WeatherDisplay:10.37,2013-08-14 04:40:00,
2013-08-14 14:45:00,80.3,68.8,29.94,ENE,70,1.0,7.0,68,0.00,FEW,,0.00,WeatherDisplay:10.37,2013-08-14 04:45:00,
2013-08-14 14:50:00,80.2,68.2,29.94,ENE,71,5.0,9.0,67,0.00,FEW,,0.00,WeatherDisplay:10.37,2013-08-14 04:50:00,
2013-08-14 14:55:00,80.3,68.3,29.94,ENE,69,1.0,6.0,67,0.00,FEW,,0.00,WeatherDisplay:10.37,2013-08-14 04:55:00,
2013-08-14 15:00:00,80.2,68.2,29.94,ENE,65,5.0,7.0,67,0.00,FEW,,0.00,WeatherDisplay:10.37,2013-08-14 05:00:00,
2013-08-14 15:10:00,80.1,68.6,29.94,ENE,69,6.0,9.0,68,0.00,FEW,,0.00,WeatherDisplay:10.37,2013-08-14 05:10:00,
2013-08-14 15:15:00,79.9,68.9,29.94,ENE,71,2.0,7.0,69,0.00,FEW,,0.00,WeatherDisplay:10.37,2013-08-14 05:15:00,
2013-08-14 15:20:00,79.6,67.7,29.94,ENE,76,7.0,10.0,67,0.00,FEW,,0.00,WeatherDisplay:10.37,2013-08-14 05:20:00,
2013-08-14 15:30:00,79.1,68.1,29.94,ENE,75,5.0,7.0,69,0.00,FEW,,0.00,WeatherDisplay:10.37,2013-08-14 05:30:00,
2013-08-14 15:35:00,78.9,67.9,29.94,ENE,74,7.0,10.0,69,0.00,FEW,,0.00,WeatherDisplay:10.37,2013-08-14 05:35:00,
2013-08-14 15:40:00,78.4,67.8,29.94,ENE,74,7.0,10.0,70,0.00,FEW,,0.00,WeatherDisplay:10.37,2013-08-14 05:40:00,
2013-08-14 15:50:00,77.9,67.7,29.94,ENE,75,6.0,10.0,71,0.00,FEW,,0.00,WeatherDisplay:10.37,2013-08-14 05:50:00,
2013-08-14 15:55:00,77.9,68.1,29.94,ENE,74,6.0,12.0,72,0.00,FEW,,0.00,WeatherDisplay:10.37,2013-08-14 05:55:00,
2013-08-14 16:00:00,77.7,68.0,29.94,ENE,73,6.0,12.0,72,0.00,FEW,,0.00,WeatherDisplay:10.37,2013-08-14 06:00:00,
2013-08-14 16:10:00,77.4,68.1,29.94,ENE,71,6.0,10.0,73,0.00,FEW,,0.00,WeatherDisplay:10.37,2013-08-14 06:10:00,
2013-08-14 16:15:00,77.3,68.3,29.94,ENE,72,6.0,12.0,74,0.00,FEW,,0.00,WeatherDisplay:10.37,2013-08-14 06:15:00,
2013-08-14 16:20:00,77.1,67.4,29.93,ENE,73,6.0,9.0,72,0.00,FEW,,0.00,WeatherDisplay:10.37,2013-08-14 06:20:00,
2013-08-14 16:25:00,76.8,67.1,29.93,ENE,76,7.0,12.0,72,0.00,FEW,,0.00,WeatherDisplay:10.37,2013-08-14 06:25:00,
2013-08-14 16:30:00,76.8,67.9,29.94,ENE,74,6.0,10.0,74,0.00,FEW,,0.00,WeatherDisplay:10.37,2013-08-14 06:30:00,
2013-08-14 16:35:00,76.7,67.8,29.94,ENE,75,6.0,12.0,74,0.00,FEW,,0.00,WeatherDisplay:10.37,2013-08-14 06:35:00,
2013-08-14 16:40:00,76.5,68.0,29.93,East,80,8.0,12.0,75,0.00,FEW,,0.00,WeatherDisplay:10.37,2013-08-14 06:40:00,
2013-08-14 16:45:00,76.2,67.7,29.94,East,79,6.0,12.0,75,0.00,FEW,,0.00,WeatherDisplay:10.37,2013-08-14 06:45:00,
2013-08-14 16:55:00,75.9,67.4,29.94,ENE,76,7.0,12.0,75,0.00,FEW,,0.00,WeatherDisplay:10.37,2013-08-14 06:55:00,
2013-08-14 17:00:00,75.7,67.2,29.94,East,80,8.0,12.0,75,0.00,FEW,,0.00,WeatherDisplay:10.37,2013-08-14 07:00:00,
2013-08-14 17:10:00,75.5,67.0,29.94,East,87,8.0,12.0,75,0.00,FEW,,0.00,WeatherDisplay:10.37,2013-08-14 07:10:00,
2013-08-14 17:15:00,75.4,66.9,29.94,East,88,6.0,12.0,75,0.00,FEW,,0.00,WeatherDisplay:10.37,2013-08-14 07:15:00,
2013-08-14 17:20:00,75.2,66.7,29.95,East,87,7.0,10.0,75,0.00,FEW,,0.00,WeatherDisplay:10.37,2013-08-14 07:20:00,
2013-08-14 17:25:00,75.2,67.1,29.95,East,88,6.0,9.0,76,0.00,FEW,,0.00,WeatherDisplay:10.37,2013-08-14 07:25:00,
2013-08-14 17:30:00,75.1,67.0,29.95,East,87,6.0,9.0,76,0.00,FEW,,0.00,WeatherDisplay:10.37,2013-08-14 07:30:00,
2013-08-14 17:35:00,75.0,66.2,29.95,East,89,6.0,8.0,74,0.00,FEW,,0.00,WeatherDisplay:10.37,2013-08-14 07:35:00,
2013-08-14 17:40:00,74.9,66.1,29.95,East,92,5.0,7.0,74,0.00,FEW,,0.00,WeatherDisplay:10.37,2013-08-14 07:40:00,
2013-08-14 17:45:00,74.9,66.4,29.95,East,94,5.0,9.0,75,0.00,FEW,,0.00,WeatherDisplay:10.37,2013-08-14 07:45:00,
2013-08-14 17:50:00,74.9,66.4,29.96,East,91,2.0,6.0,75,0.00,FEW,,0.00,WeatherDisplay:10.37,2013-08-14 07:50:00,
2013-08-14 17:55:00,74.8,65.9,29.96,East,88,2.0,4.0,74,0.00,FEW,,0.00,WeatherDisplay:10.37,2013-08-14 07:55:00,
2013-08-14 18:00:00,74.7,66.2,29.97,East,91,0.0,4.0,75,0.00,FEW,,0.00,WeatherDisplay:10.37,2013-08-14 08:00:00,
2013-08-14 18:10:00,74.3,65.9,29.96,East,96,0.0,3.0,75,0.00,FEW,,0.00,WeatherDisplay:10.37,2013-08-14 08:10:00,
2013-08-14 18:15:00,74.3,66.2,29.96,East,92,0.0,4.0,76,0.00,FEW,,0.00,WeatherDisplay:10.37,2013-08-14 08:15:00,
2013-08-14 18:20:00,74.2,65.7,29.97,East,93,0.0,3.0,75,0.00,FEW,,0.00,WeatherDisplay:10.37,2013-08-14 08:20:00,
2013-08-14 18:25:00,73.9,65.5,29.96,East,96,2.0,4.0,75,0.00,FEW,,0.00,WeatherDisplay:10.37,2013-08-14 08:25:00,
2013-08-14 18:30:00,73.9,65.1,29.97,East,96,0.0,2.0,74,0.00,FEW,,0.00,WeatherDisplay:10.37,2013-08-14 08:30:00,
2013-08-14 18:35:00,73.8,64.9,29.97,East,93,0.0,3.0,74,0.00,FEW,,0.00,WeatherDisplay:10.37,2013-08-14 08:35:00,
2013-08-14 18:40:00,73.7,64.1,29.97,East,92,0.0,1.0,72,0.00,FEW,,0.00,WeatherDisplay:10.37,2013-08-14 08:40:00,
2013-08-14 18:45:00,73.5,63.9,29.97,East,92,0.0,0.0,72,0.00,FEW,,0.00,WeatherDisplay:10.37,2013-08-14 08:45:00,
2013-08-14 18:50:00,73.1,63.5,29.97,East,92,0.0,0.0,72,0.00,FEW,,0.00,WeatherDisplay:10.37,2013-08-14 08:50:00,
2013-08-14 18:55:00,72.7,63.9,29.97,East,92,0.0,1.0,74,0.00,FEW,,0.00,WeatherDisplay:10.37,2013-08-14 08:55:00,
2013-08-14 19:00:00,72.2,63.4,29.98,East,92,0.0,1.0,74,0.00,FEW,,0.00,WeatherDisplay:10.37,2013-08-14 09:00:00,
2013-08-14 19:05:00,71.7,63.4,29.98,East,92,0.0,0.0,75,0.00,FEW,,0.00,WeatherDisplay:10.37,2013-08-14 09:05:00,
2013-08-14 19:10:00,71.3,62.9,29.99,East,92,0.0,0.0,75,0.00,FEW,,0.00,WeatherDisplay:10.37,2013-08-14 09:10:00,
2013-08-14 19:15:00,70.8,62.9,29.99,East,92,0.0,0.0,76,0.00,FEW,,0.00,WeatherDisplay:10.37,2013-08-14 09:15:00,
2013-08-14 19:20:00,70.4,62.8,29.99,East,92,0.0,0.0,77,0.00,FEW,,0.00,WeatherDisplay:10.37,2013-08-14 09:20:00,
2013-08-14 19:25:00,70.1,62.9,29.99,East,92,0.0,0.0,78,0.00,FEW,,0.00,WeatherDisplay:10.37,2013-08-14 09:25:00,
2013-08-14 19:30:00,69.5,62.4,29.99,East,92,0.0,1.0,78,0.00,FEW,,0.00,WeatherDisplay:10.37,2013-08-14 09:30:00,
2013-08-14 19:35:00,69.1,62.3,30.00,East,92,0.0,0.0,79,0.00,FEW,,0.00,WeatherDisplay:10.37,2013-08-14 09:35:00,
2013-08-14 19:40:00,68.7,62.3,30.00,East,92,0.0,0.0,80,0.00,FEW,,0.00,WeatherDisplay:10.37,2013-08-14 09:40:00,
2013-08-14 19:45:00,68.5,62.1,30.00,East,92,0.0,0.0,80,0.00,FEW,,0.00,WeatherDisplay:10.37,2013-08-14 09:45:00,
2013-08-14 19:50:00,68.2,62.1,30.00,East,92,0.0,0.0,81,0.00,FEW,,0.00,WeatherDisplay:10.37,2013-08-14 09:50:00,
2013-08-14 19:55:00,67.9,61.9,30.00,East,92,0.0,0.0,81,0.00,FEW,,0.00,WeatherDisplay:10.37,2013-08-14 09:55:00,
2013-08-14 20:00:00,67.6,61.9,30.01,East,92,0.0,0.0,82,0.00,FEW,,0.00,WeatherDisplay:10.37,2013-08-14 10:00:00,
2013-08-14 20:05:00,67.5,61.8,30.01,East,92,0.0,0.0,82,0.00,FEW,,0.00,WeatherDisplay:10.37,2013-08-14 10:05:00,
2013-08-14 20:15:00,67.0,61.7,30.02,East,92,0.0,0.0,83,0.00,FEW,,0.00,WeatherDisplay:10.37,2013-08-14 10:15:00,
2013-08-14 20:20:00,66.8,61.8,30.02,East,92,0.0,0.0,84,0.00,FEW,,0.00,WeatherDisplay:10.37,2013-08-14 10:20:00,
2013-08-14 20:30:00,66.5,61.5,30.02,East,92,0.0,0.0,84,0.00,FEW,,0.00,WeatherDisplay:10.37,2013-08-14 10:30:00,
2013-08-14 20:40:00,66.3,61.3,30.02,East,92,0.0,0.0,84,0.00,FEW,,0.00,WeatherDisplay:10.37,2013-08-14 10:40:00,
2013-08-14 20:45:00,66.1,61.1,30.02,East,92,0.0,0.0,84,0.00,FEW,,0.00,WeatherDisplay:10.37,2013-08-14 10:45:00,
2013-08-14 20:50:00,65.9,61.3,30.02,East,92,0.0,0.0,85,0.00,FEW,,0.00,WeatherDisplay:10.37,2013-08-14 10:50:00,
2013-08-14 20:55:00,65.7,61.1,30.02,East,92,0.0,0.0,85,0.00,CLR,,0.00,WeatherDisplay:10.37,2013-08-14 10:55:00,
2013-08-14 21:00:00,65.5,60.9,30.02,East,92,0.0,0.0,85,0.00,CLR,,0.00,WeatherDisplay:10.37,2013-08-14 11:00:00,
2013-08-14 21:10:00,65.1,60.8,30.02,East,92,0.0,0.0,86,0.00,CLR,,0.00,WeatherDisplay:10.37,2013-08-14 11:10:00,
2013-08-14 21:15:00,64.9,60.7,30.02,East,92,0.0,0.0,86,0.00,CLR,,0.00,WeatherDisplay:10.37,2013-08-14 11:15:00,
2013-08-14 21:20:00,64.8,60.5,30.02,East,92,0.0,0.0,86,0.00,CLR,,0.00,WeatherDisplay:10.37,2013-08-14 11:20:00,
2013-08-14 21:25:00,64.6,60.3,30.02,East,92,0.0,0.0,86,0.00,CLR,,0.00,WeatherDisplay:10.37,2013-08-14 11:25:00,
2013-08-14 21:30:00,64.4,60.2,30.02,East,92,0.0,0.0,86,0.00,CLR,,0.00,WeatherDisplay:10.37,2013-08-14 11:30:00,
2013-08-14 21:35:00,64.3,60.3,30.03,East,92,0.0,0.0,87,0.00,CLR,,0.00,WeatherDisplay:10.37,2013-08-14 11:35:00,
2013-08-14 21:40:00,64.2,60.2,30.03,East,92,0.0,0.0,87,0.00,CLR,,0.00,WeatherDisplay:10.37,2013-08-14 11:40:00,
2013-08-14 21:50:00,64.1,60.2,30.03,East,92,0.0,0.0,87,0.00,CLR,,0.00,WeatherDisplay:10.37,2013-08-14 11:50:00,
2013-08-14 21:55:00,64.2,60.2,30.03,East,92,0.0,1.0,87,0.00,CLR,,0.00,WeatherDisplay:10.37,2013-08-14 11:55:00,
2013-08-14 22:00:00,64.4,60.4,30.03,East,92,0.0,2.0,87,0.00,CLR,,0.00,WeatherDisplay:10.37,2013-08-14 12:00:00,
2013-08-14 22:10:00,64.7,60.7,30.03,East,94,0.0,2.0,87,0.00,CLR,,0.00,WeatherDisplay:10.37,2013-08-14 12:10:00,
2013-08-14 22:15:00,64.9,60.9,30.03,East,95,0.0,2.0,87,0.00,CLR,,0.00,WeatherDisplay:10.37,2013-08-14 12:15:00,
2013-08-14 22:20:00,65.0,61.0,30.03,East,95,0.0,1.0,87,0.00,CLR,,0.00,WeatherDisplay:10.37,2013-08-14 12:20:00,
2013-08-14 22:25:00,65.2,60.9,30.03,East,96,0.0,1.0,86,0.00,CLR,,0.00,WeatherDisplay:10.37,2013-08-14 12:25:00,
2013-08-14 22:30:00,65.4,61.1,30.03,East,96,0.0,1.0,86,0.00,CLR,,0.00,WeatherDisplay:10.37,2013-08-14 12:30:00,
2013-08-14 22:40:00,65.7,61.0,30.03,SSW,207,0.0,2.0,85,0.00,CLR,,0.00,WeatherDisplay:10.37,2013-08-14 12:40:00,
2013-08-14 22:45:00,65.6,61.0,30.03,SSW,210,0.0,1.0,85,0.00,CLR,,0.00,WeatherDisplay:10.37,2013-08-14 12:45:00,
2013-08-14 22:55:00,65.4,60.8,30.03,SW,214,0.0,4.0,85,0.00,CLR,,0.00,WeatherDisplay:10.37,2013-08-14 12:55:00,
2013-08-14 23:00:00,65.5,60.8,30.03,SW,224,0.0,3.0,85,0.00,CLR,,0.00,WeatherDisplay:10.37,2013-08-14 13:00:00,
2013-08-14 23:05:00,65.7,61.1,30.03,SW,233,0.0,6.0,85,0.00,CLR,,0.00,WeatherDisplay:10.37,2013-08-14 13:05:00,
2013-08-14 23:10:00,65.8,60.8,30.03,SW,234,0.0,2.0,84,0.00,CLR,,0.00,WeatherDisplay:10.37,2013-08-14 13:10:00,
2013-08-14 23:15:00,65.9,60.9,30.03,SW,231,1.0,4.0,84,0.00,CLR,,0.00,WeatherDisplay:10.37,2013-08-14 13:15:00,
2013-08-14 23:20:00,66.0,61.0,30.03,SW,227,1.0,3.0,84,0.00,CLR,,0.00,WeatherDisplay:10.37,2013-08-14 13:20:00,
2013-08-14 23:25:00,66.0,61.0,30.03,SW,229,0.0,3.0,84,0.00,CLR,,0.00,WeatherDisplay:10.37,2013-08-14 13:25:00,
2013-08-14 23:30:00,65.9,60.9,30.03,SW,231,0.0,3.0,84,0.00,CLR,,0.00,WeatherDisplay:10.37,2013-08-14 13:30:00,
2013-08-14 23:35:00,65.8,60.8,30.02,WSW,238,0.0,3.0,84,0.00,CLR,,0.00,WeatherDisplay:10.37,2013-08-14 13:35:00,
2013-08-14 23:40:00,65.8,60.8,30.03,SW,233,0.0,2.0,84,0.00,CLR,,0.00,WeatherDisplay:10.37,2013-08-14 13:40:00,
2013-08-14 23:45:00,65.7,60.7,30.02,SW,226,0.0,2.0,84,0.00,CLR,,0.00,WeatherDisplay:10.37,2013-08-14 13:45:00,
2013-08-14 23:50:00,65.6,60.6,30.02,SW,226,0.0,1.0,84,0.00,CLR,,0.00,WeatherDisplay:10.37,2013-08-14 13:50:00,